Weather History for Shelbyville, IN

Change the Weather History Date:

Thursday, May 29, 2014

  Actual Average Record
Temperature  
Mean Temperature 75 °F 67 °F  
Max Temperature 85 °F 77 °F 91 °F (2006)
Min Temperature 65 °F 57 °F 46 °F (2008)
Degree Days  
Heating Degree Days 0 2  
Month to date heating degree days 103 132  
Since 1 July heating degree days 5702 5392  
Cooling Degree Days 10 4  
Month to date cooling degree days 130 62  
Year to date cooling degree days 140 75  
Growing Degree Days 25 (Base 50)    
Moisture  
Dew Point 65 °F    
Average Humidity 69    
Maximum Humidity 87    
Minimum Humidity 51    
Precipitation  
Precipitation 0.02 in 0.14 in 0.48 in (2012)
Month to date precipitation 4.15 4.99  
Year to date precipitation 15.49 17.49  
Sea Level Pressure  
Sea Level Pressure 30.02 in    
Wind  
Wind Speed 5 mph (East)    
Max Wind Speed 18 mph    
Max Gust Speed 22 mph    
Visibility 9 miles    
Events Thunderstorm    
T = Trace of Precipitation, MM = Missing Value Source: NWS Daily Summary

Daily Weather History Graph

Daily Weather History Graph

Search for Another Location

Airport:

Trip Planner

Search our weather history database for the weather conditions in past years. The results will help you decide how hot, cold, wet, or windy it might be!

Date:

Astronomy

May. 29, 2014 Rise Set
Actual Time 6:19 AM EDT 9:02 PM EDT
Civil Twilight 5:47 AM EDT 9:34 PM EDT
Nautical Twilight 5:07 AM EDT 10:13 PM EDT
Astronomical Twilight 4:23 AM EDT 10:59 PM EDT
Moon 7:11 AM EDT (5/29) 9:52 PM EDT (5/29)
Length of Visible Light 15h 46m
Length of Day
14h 43m
New Moon, 1% of the Moon is Illuminated
May 29
New Moon
Jun 5
First Quarter
Jun 13
Full
Jun 19
Last Quarter
Jun 27
New

Hourly Weather History & Observations

Time (EDT) Temp. Heat Index Dew Point Humidity Pressure Visibility Wind Dir Wind Speed Gust Speed Precip Events Conditions
12:53 AM 70.0 °F - 62.1 °F 76% 29.99 in 10.0 mi SE 4.6 mph - N/A   Clear
2:53 AM 66.0 °F - 62.1 °F 87% 29.97 in 9.0 mi NNE 3.5 mph - N/A   Clear
4:53 AM 66.0 °F - 62.1 °F 87% 29.98 in 7.0 mi East 5.8 mph - N/A   Clear
5:53 AM 66.0 °F - 62.1 °F 87% 29.99 in 6.0 mi East 4.6 mph - N/A   Clear
6:53 AM 66.0 °F - 63.0 °F 90% 30.01 in 4.0 mi Calm Calm - N/A   Clear
7:53 AM 69.1 °F - 64.0 °F 84% 30.02 in 5.0 mi East 5.8 mph - N/A   Haze
8:53 AM 71.1 °F - 64.9 °F 81% 30.03 in 7.0 mi SSE 4.6 mph - N/A   Overcast
9:53 AM 75.0 °F - 64.9 °F 71% 30.04 in 10.0 mi Calm Calm - N/A   Clear
10:53 AM 78.1 °F - 64.9 °F 64% 30.04 in 10.0 mi NNW 4.6 mph - N/A   Clear
11:53 AM 81.0 °F 82.5 °F 64.0 °F 56% 30.05 in 10.0 mi East 4.6 mph - N/A   Mostly Cloudy
12:53 PM 84.0 °F 85.8 °F 64.9 °F 53% 30.04 in 10.0 mi NE 6.9 mph - N/A   Scattered Clouds
1:53 PM 84.0 °F 85.4 °F 64.0 °F 51% 30.02 in 10.0 mi Calm Calm - N/A   Overcast
2:00 PM 84.0 °F 84.9 °F 63.0 °F 49% 30.04 in 10.0 mi SE 6.9 mph - N/A Thunderstorm Overcast
2:26 PM 80.1 °F 81.9 °F 64.9 °F 60% 30.04 in 10.0 mi SSW 17.3 mph - N/A Thunderstorm Overcast
2:53 PM 79.0 °F - 63.0 °F 58% 30.02 in 10.0 mi South 11.5 mph - N/A   Overcast
3:53 PM 81.0 °F 82.2 °F 63.0 °F 54% 30.01 in 10.0 mi SW 5.8 mph - N/A   Partly Cloudy
4:53 PM 80.1 °F 81.9 °F 64.9 °F 60% 30.02 in 10.0 mi NNE 9.2 mph - N/A   Overcast
6:53 PM 78.1 °F - 66.9 °F 68% 30.00 in 10.0 mi Calm Calm - N/A   Mostly Cloudy
7:53 PM 77.0 °F - 69.1 °F 76% 29.99 in 10.0 mi Calm Calm - N/A   Clear
8:53 PM 75.0 °F - 69.1 °F 82% 30.01 in 9.0 mi North 3.5 mph - N/A   Clear
9:53 PM 75.0 °F - 68.0 °F 79% 30.03 in 10.0 mi NNE 3.5 mph - N/A   Clear
10:53 PM 72.0 °F - 66.9 °F 84% 30.04 in 9.0 mi NNE 4.6 mph - N/A   Clear
11:53 PM 73.0 °F - 66.0 °F 79% 30.05 in 10.0 mi ENE 4.6 mph - N/A   Scattered Clouds